Regional Weather Roundup
Issued by NWS

Home | Current Version | Previous Version | Text Only | Print | Product List | Glossary On
Versions: 1 2 3 4 5 6 7 8 9 10 11 12 13 14 15 16 17 18 19 20 21 22 23 24 25 26 27 28 29 30 31 32 33 34 35 36 37 38 39 40 41 42 43 44 45 46 47 48 49 50
000
ASUS45 KABQ 270610
RWRNM
NEW MEXICO REGIONAL WEATHER ROUNDUP
NATIONAL WEATHER SERVICE ALBUQUERQUE NM
1200 AM MDT SAT AUG 27 2016

NOTE: "FAIR" MEANS FEW OR NO CLOUDS BELOW 12,000 FEET AGL WITH NO
       SIGNIFICANT WEATHER OR OBSTRUCTIONS TO VISION.

      THIS PRODUCT IS RELEASED AS TWO VERSIONS.  ONE VERSION NEAR
      THE TOP OF THE HOUR CONTAINING PRELIMINARY DATA FROM ALBUQUERQUE
      AND OTHER STATIONS.  A FINAL VERSION WITH ADDITIONAL DATA IS
      ISSUED ABOUT 10 MINUTES AFTER THE HOUR.

NMZ501-503-504-510>518-270700-
NORTHWEST PLATEAU/NORTHCENTRAL MOUNTAINS

CITY           SKY/WX    TMP DP  RH WIND       PRES   REMARKS
FARMINGTON     FAIR      64  44  48 NE3       30.16S
6HR MIN TEMP:  63; 6HR MAX TEMP:  77;

LOS ALAMOS     FAIR      59  45  59 SW8       30.29S
SANTA FE       FAIR      61  51  70 E6        30.22F
6HR MIN TEMP:  61; 6HR MAX TEMP:  72;

TAOS           FAIR      52  39  62 E7        30.28F
ANGEL FIRE     FAIR      41  40  93 SE5       30.36F

$$
NMZ402-403-502-505>509-270700-
WESTCENTRAL MOUNTAINS/SOUTHWEST MOUNTAINS

CITY           SKY/WX    TMP DP  RH WIND       PRES   REMARKS
GALLUP         CLOUDY    58  44  60 CALM      30.24S
6HR MIN TEMP:  55; 6HR MAX TEMP:  73;

GRANTS         CLOUDY    55  48  77 NW3       30.26S
SILVER CITY    FAIR      60  55  85 NW6       30.19S

$$
NMZ407-409-411-412-270700-
SOUTHERN DESERTS

CITY           SKY/WX    TMP DP  RH WIND       PRES   REMARKS
DEMING         FAIR      68  57  68 NE7       30.12S
6HR MIN TEMP:  67; 6HR MAX TEMP:  83; 6HR PCP: TRACE;

LAS CRUCES     MOCLDY    69  55  61 N7        30.15S
ALAMOGORDO     MOCLDY    66  59  77 NE9       30.17R
T OR C         FAIR      67  56  67 S3        30.15S
6HR MIN TEMP:  67; 6HR MAX TEMP:  78; 6HR PCP: TRACE;


$$
NMZ519>523-270700-
CENTRAL VALLEYS/CENTRAL HIGHLANDS

CITY           SKY/WX    TMP DP  RH WIND       PRES   REMARKS
ALBUQUERQUE    FAIR      67  48  50 E6        30.16F
6HR MIN TEMP:  67; 6HR MAX TEMP:  78;

DOUBLE EAGLE   FAIR      59  48  68 S5        30.20S
MORIARTY ARPT  FAIR      55  49  82 CALM      30.25S
6HR MIN TEMP:  54; 6HR MAX TEMP:  69;

CLINES CORNERS FAIR      55  47  74 SW9       30.28F
6HR MIN TEMP:  54; 6HR MAX TEMP:  68; 6HR PCP: TRACE;

BELEN          FAIR      63  45  50 SW5       30.16S
6HR MIN TEMP:  63; 6HR MAX TEMP:  80;

SOCORRO        FAIR      68  51  55 S6        30.14S
6HR MIN TEMP:  68; 6HR MAX TEMP:  78;


$$
NMZ524>526-539-540-270700-
SOUTHCENTRAL MOUNTAINS

CITY           SKY/WX    TMP DP  RH WIND       PRES   REMARKS
RUIDOSO          N/A     57  48  72 CALM      30.31S

$$
NMZ527>531-270700-
NORTHEAST HIGHLANDS/NORTHEAST PLAINS

CITY           SKY/WX    TMP DP  RH WIND       PRES   REMARKS
LAS VEGAS      FAIR      53  50  89 S8        30.26F
6HR MIN TEMP:  53; 6HR MAX TEMP:  60; 6HR PCP: TRACE;

RATON          FAIR      51  47  86 E8        30.20F
6HR MIN TEMP:  51; 6HR MAX TEMP:  69;

CLAYTON        FAIR      59  56  89 S6        30.15F
6HR MIN TEMP:  58; 6HR MAX TEMP:  69;


$$
NMZ532>537-270700-
EASTCENTRAL PLAINS

CITY           SKY/WX    TMP DP  RH WIND       PRES   REMARKS
TUCUMCARI      FAIR      69  60  73 S13       30.10S
6HR MIN TEMP:  65; 6HR MAX TEMP:  84;

CANNON AFB     CLOUDY    66  61  86 SE12      30.16R
6HR MIN TEMP:  64; 6HR MAX TEMP:  81; 6HR PCP:  0.02;

CLOVIS AIRPORT MOCLDY    64  57  77 S13       30.16S

$$
NMZ028-029-538-270700-
SOUTHEAST PLAINS

CITY           SKY/WX    TMP DP  RH WIND       PRES   REMARKS
ROSWELL        FAIR      70  61  73 S6        30.10S
6HR MIN TEMP:  69; 6HR MAX TEMP:  83; 6HR PCP: TRACE;

ARTESIA        FAIR      70  63  78 CALM      30.11R
CARLSBAD       FAIR      70  64  81 S7        30.07S
6HR MIN TEMP:  70; 6HR MAX TEMP:  85;

HOBBS          FAIR      66  66 100 E5        30.14S


$$




USA.gov is the U.S. government's official web portal to all federal, state and local government web resources and services.